Tracking 29892 objects as of 21-Nov-2024
HD Live streaming from Space Station
objects crossing your sky now

STARLINK-2081

Track STARLINK-2081 now!
10-day predictions
STARLINK-2081 is classified as:


NORAD ID: 47366
Int'l Code: 2021-005T
Perigee: 553.5 km
Apogee: 555.0 km
Inclination: 53.1 °
Period: 95.6 minutes
Semi major axis: 6925 km
RCS: Unknown
Launch date: January 20, 2021
Source: United States (US)
Launch site: AIR FORCE EASTERN TEST RANGE (AFETR)
Your satellite tracking list
Your tracking list is empty




NASA's NSSDC Master Catalog

Two Line Element Set (TLE):
1 47366U 21005T   24325.21628894  .00011929  00000-0  81771-3 0  9999
2 47366  53.0518  31.6120 0001136  77.9626 282.1490 15.06431405211527
Source of the keplerian elements: AFSPC